Weather Roundup
Issued by NWS Chicago, IL

Home | Current Version | Previous Version | Text Only | Print | Product List | Glossary On
Versions: 1 2 3 4 5 6 7 8 9 10 11 12 13 14 15 16 17 18 19 20 21 22 23 24 25 26 27 28 29 30 31 32 33 34 35 36 37 38 39 40 41 42 43 44 45 46 47 48 49 50
000
NZUS59 KLOT 260002
HRRLOT

CHICAGO AREA WEATHER ROUNDUP
NATIONAL WEATHER SERVICE CHICAGO/ROMEOVILLE IL
700 PM CDT SAT APR 25 2015

NOTE: "FAIR" INDICATES FEW OR NO CLOUDS BELOW 12,000 FEET WITH NO
SIGNIFICANT WEATHER AND/OR OBSTRUCTIONS TO VISIBILITY.

* THESE STATIONS ARE NOT UNDER NWS QUALITY CONTROL. THEY ALSO MAY NOT
  REPORT WEATHER SUCH AS PRECIPITATION OR FOG.

ILZ005-006-012>014-019>023-260100-
NORTHEAST ILLINOIS

CITY           SKY/WX    TMP DP  RH WIND       PRES   REMARKS
OHARE          CLOUDY    42  34  73 NE13      29.81R
6HR MIN TEMP:  42; 6HR MAX TEMP:  48; 6HR PCP:  0.07;

MIDWAY         DRIZZLE   46  39  76 NE14      29.81R
6HR MIN TEMP:  45; 6HR MAX TEMP:  49; 6HR PCP:  0.10;

AURORA         CLOUDY    46  38  73 NE14      29.80R
6HR MIN TEMP:  46; 6HR MAX TEMP:  49; 6HR PCP:  0.04;

LANSING*       DRIZZLE   44  40  85 NE13      29.79R
WAUKEGAN       NOT AVBL
DUPAGE AIRPORT CLOUDY    44  38  79 NE13      29.80R
6HR MIN TEMP:  43; 6HR MAX TEMP:  48; 6HR PCP:  0.10;

WHEELING       CLOUDY    42  32  67 NE10      29.83R
6HR MIN TEMP:  42; 6HR MAX TEMP:  46; 6HR PCP:  0.06;

NORTHERLY IS     N/A     41  37  86 N13         N/A
$$

WIZ051-052-058>065-066-070>072-260100-
SOUTHEAST WISCONSIN

CITY           SKY/WX    TMP DP  RH WIND       PRES   REMARKS
MILWAUKEE      MOCLDY    39  26  59 N16G26    29.86R
6HR MIN TEMP:  39; 6HR MAX TEMP:  40;

KENOSHA*       CLOUDY    41  29  62 N12       29.84R
RACINE*        CLOUDY    39  29  67 N17       29.85R
WAUKESHA       MOCLDY    43  25  49 NE9       29.84R
$$

INZ001>003-010>013-019-020-260100-
NORTHWEST INDIANA

CITY           SKY/WX    TMP DP  RH WIND       PRES   REMARKS
GARY*          LGT RAIN  45  39  81 NE9       29.80R
MICHIGAN CITY* NOT AVBL
RENSSELAER*    NOT AVBL
$$

LMZ740>746-260100-
SOUTHERN LAKE MICHIGAN

STATION/POSITION TIME  SKY/WX   TEMP WIND        PRES    VSBY
                                AIR  DIR/SP/G
                 (UTC)          (F)  (DEG/KT/KT) (MB)    (MI)
HARRISON CRIB    2300            40   10/ 15/ 17   N/A
BURNHAM HARBOR   0000            41  360/ 12/ 14   N/A
CALUMET HARBOR   2306            43   10/  9/ 12   N/A
BURNS HARBOR     2300            45   40/ 10/ 14 1008.8R
MICHIGAN CITY    2300            47   40/ 11/ 13   N/A
$$

ABBREVIATIONS USED IN REMARKS
   TC - TEMPERATURE IN CELSIUS
  WCI - WIND CHILL INDEX
   HX - HEAT INDEX
  VSB - VISIBILITY
$$


USA.gov is the U.S. government's official web portal to all federal, state and local government web resources and services.